BRITE-CA1 (TORONTO)

Last updated on Mon Sep 21 2026 00:03:33 GMT+0000 (Coordinated Universal Time)

1 40020U 14033L 26263.63085875 .00000401 00000+0 68063-4 0 9999 2 40020 97.9863 30.8709 0077721 332.2681 27.4392 14.72818588656260
UTC large
Height (km)
Speed (km/s)
/
Latitude / Longitude
Inclination (degrees)
Orbital Period (minutes)
Azimuth
Elevation
Range (km)
Doppler Factor

Next 0 passes for location: London (51.5072 / 0.1276)

No passes found over London.
BRITE-CA1 (TORONTO)